     2              OBSERVATION DATA    GPS                 RINEX VERSION / TYPE
teqc 1997Jul24 19970902 21:18:38UTC                         PGM / RUN BY / DATE
                                                            COMMENT
BIT 2 OF LLI FLAGS DATA COLLECTED UNDER A-S CONDITION       COMMENT
BIT 2 OF LLI FLAGS DATA COLLECTED UNDER A-S CONDITION       COMMENT
Original Marker Name: 55496.YUMA                            COMMENT
Campaign Name: Salt. Tr. Crust. Monit. May-Jun 1986         COMMENT
4-Character Station Name: YUMA                              COMMENT
6-Character Antenna Code: TI4100                            COMMENT
Vertical Measurement Point: PAE                             COMMENT
Vertical Offset to Rinex Ref. Point: 0.0000                 COMMENT
Radial Measurement Point: RRP                               COMMENT
Radial Offset to Rinex Ref. Point: 0.0000                   COMMENT
Antenna Height from Field Measurement: 1.4350 m             COMMENT
Original XYZ: -1775425.0442 -3846377.0767 2688424.8113      COMMENT
New XYZ position is based on association with SCEC monument COMMENT
E1C9S0R6+0011. Position of that monument is believed to be  COMMENT
valid to within 1 m horizontally; vertical accuracy         COMMENT
should be no worse than 3-times this value.                 COMMENT
                                                            COMMENT
Revised Rinex header created by UCSD GPS archive for        COMMENT
GSAC on 12-Apr-1999 (1999:102) 01:19:37 GMT                 COMMENT
For assistance contact dagnew@ucsd.edu or hjohnson@ucsd.edu COMMENT
                                                            COMMENT
YUMA NCMN 1983                                              MARKER NAME
5 NATIONAL GEODETIC SURVEY                                  OBSERVER / AGENCY
UT04 TI 4100 1.0                                            REC # / TYPE / VERS
108 TI 4100                                                 ANT # / TYPE
 -2196778.0000 -4887337.0000  3448425.0000                  APPROX POSITION XYZ
        1.4350        0.0000        0.0000                  ANTENNA: DELTA H/E/N
     1     1     0                                          WAVELENGTH FACT L1/2
     4    P1    P2    L1    L2                              # / TYPES OF OBSERV
     6                                                      INTERVAL
  1986     6    12     4    36   47.000000                  TIME OF FIRST OBS
  1986     6    12     4    55   59.000000                  TIME OF LAST OBS
     0                                                      # OF SATELLITES
                                                            END OF HEADER
 86  6 12  4 36 47.0800000  0  3G12G13G 7
  21759150.062    21759155.072    45590424.067 8 -61833499.961 7
  22125197.668    22125200.807    73295221.256 8 -84516399.876 8
  24379651.083    24379655.284    15316951.577 9 -39810829.579 8
 86  6 12  4 36 53.0800000  0  3G12G13G 7
  21761838.674    21761843.011    45604550.449 8 -61822492.376 8
  22126890.338    22126893.441    73304115.978 8 -84509468.920 8
  24378956.343    24378958.400    15313295.023 8 -39813678.830 7
 86  6 12  4 36 59.0800000  0  3G12G13G 7
  21764530.719    21764535.400    45618696.109 9 -61811469.779 7
  22128583.330    22128586.534    73313012.324 8 -84502536.697 8
  24378264.197    24378266.797    15309661.268 9 -39816510.325 8
 86  6 12  4 37  5.0800000  0  3G12G13G 7
  21767225.083    21767231.209    45632860.995 8 -61800432.217 8
  22130277.381    22130280.721    73321910.306 9 -84495603.211 8
  24377577.373    24377579.712    15306048.385 8 -39819325.568 7
 86  6 12  4 37 11.0800000  0  3G12G13G 7
  21769924.541    21769930.066    45647045.163 8 -61789379.618 7
  22131969.858    22131972.271    73330809.946 8 -84488668.425 8
  24376893.727    24376895.106    15302455.888 8 -39822124.915 7
 86  6 12  4 37 17.0800000  0  3G12G13G 7
  21772627.233    21772632.328    45661248.547 9 -61778312.056 8
  22133664.346    22133667.978    73339711.289 8 -84481732.318 7
  24376213.593    24376217.356    15298886.381 9 -39824906.339 8
 86  6 12  4 37 23.0800000  0  3G12G13G 7
  21775334.818    21775339.856    45675471.020 8 -61767229.599 8
  22135359.184    22135361.195    73348614.270 8 -84474794.934 8
                  24375543.332                   -39827664.580 7
 86  6 12  4 37 29.0800000  0  3G12G13G 7
  21778044.006    21778049.388    45689712.622 9 -61756132.252 7
  22137053.313    22137056.027    73357518.775 9 -84467856.349 8
  24374872.086    24374877.960    15258941.956 8 -39830394.731 8
 86  6 12  4 37 35.0800000  0  3G12G13G 7
  21780758.030    21780762.840    45703973.351 8 -61745020.004 7
  22138747.934    22138750.947    73366424.837 8 -84460916.567 7
  24374212.815    24374217.623    15255475.488 9 -39833095.859 7
 86  6 12  4 37 41.0800000  0  3G12G13G 7
  21783475.661    21783482.646    45718253.135 8 -61733892.890 8
  22140443.046    22140446.504    73375332.514 9 -84453975.515 7
  24373560.239    24373563.617    15252042.876 9 -39835770.616 8
 86  6 12  4 37 47.0800000  0  3G12G13G 7
  21786196.640    21786200.362    45732552.043 8 -61722750.899 8
  22142137.731    22142141.349    73384241.824 9 -84447033.204 8
  24372912.882    24372916.745    15248639.528 9 -39838422.573 7
 86  6 12  4 37 53.0800000  0  3G12G13G 7
  21788920.309    21788925.719    45746870.061 9 -61711593.989 8
  22143834.457    22143836.469    73393152.811 8 -84440089.554 8
  24372270.653    24372272.410    15245261.544 8 -39841054.766 8
 86  6 12  4 37 59.0800000  0  3G12G13G 7
  21791649.187    21791654.412    45761207.194 9 -61700422.195 8
  22145530.861    22145533.393    73402065.508 8 -84433144.606 7
  24371632.811    24371634.667    15241906.317 8 -39843669.233 8
 86  6 12  4 38  5.0800000  0  3G12G13G 7
  21794381.555    21794385.707    45775563.370 9 -61689235.562 8
  22147226.662    22147230.402    73410979.900 8 -84426198.320 8
  24370997.577    24371001.478    15238571.781 9 -39846267.555 8
 86  6 12  4 38 11.0800000  0  3G12G13G 7
  21797117.531    21797120.680    45789938.553 8 -61678034.124 8
  22148922.187    22148926.521    73419895.861 9 -84419250.827 8
  24370365.829    24370370.747    15235257.704 8 -39848849.951 8
 86  6 12  4 38 17.0800000  0  3G12G13G 7
  21799855.566    21799860.404    45804332.706 9 -61666817.900 7
  22150619.823    22150623.887    73428813.507 9 -84412301.990 8
  24369740.005    24369743.845    15231967.110 8 -39851414.057 8
 86  6 12  4 38 23.0800000  0  3G12G13G 7
  21802599.039    21802602.432    45818745.806 8 -61655586.914 8
  22152317.691    22152321.252    73437732.709 9 -84405351.967 8
                  24369123.923                   -39853954.656 8
 86  6 12  4 38 29.0800000  0  3G12G13G 7
  21805344.744    21805349.282    45833177.704 8 -61644341.273 8
  22154015.071    22154019.134    73446653.447 8 -84398400.749 7
  24368506.179    24368509.711    15192300.355 8 -39856467.091 8
 86  6 12  4 38 35.0800000  0  3G12G13G 7
  21808095.201    21808100.438    45847628.471 9 -61633080.942 8
  22155712.858    22155716.118    73455575.754 9 -84391448.293 9
  24367900.241    24367903.788    15189113.337 9 -39858950.491 7
 86  6 12  4 38 41.0800000  0  3G12G13G 7
  21810847.001    21810853.713    45862097.989 8 -61621805.993 8
  22157411.141    22157414.025    73464499.595 8 -84384494.657 9
  24367298.962    24367303.558    15185959.949 8 -39861407.678 7
 86  6 12  4 38 47.0800000  0  3G12G13G 7
  21813605.555    21813610.337    45876586.203 9 -61610516.483 8
  22159109.026    22159113.513    73473424.906 9 -84377539.866 8
  24366705.420    24366707.177    15182835.304 9 -39863842.462 8
 86  6 12  4 38 53.0800000  0  3G12G13G 7
  21816365.113    21816371.309    45891093.044 9 -61599212.450 8
  22160807.449    22160811.965    73482351.671 8 -84370583.945 8
  24366115.328    24366119.620    15179735.761 8 -39866257.673 7
 86  6 12  4 38 59.0800000  0  3G12G13G 7
  21819130.421    21819135.159    45905618.610 8 -61587893.825 8
  22162507.248    22162509.919    73491280.010 8 -84363626.801 9
  24365528.746    24365533.518    15176658.800 9 -39868655.307 8
 86  6 12  4 39  5.0800000  0  3G12G13G 7
  21821897.991    21821903.043    45920162.829 8 -61576560.674 7
  22164206.322    22164210.445    73500209.882 9 -84356668.453 8
  24364947.645    24364952.381    15173602.517 8 -39871036.818 8
 86  6 12  4 39 11.0800000  0  3G12G13G 7
  21824669.395    21824672.357    45934725.804 8 -61565212.903 7
  22165905.510    22165910.080    73509141.314 8 -84349708.889 8
  24364369.814    24364375.299    15170566.710 9 -39873402.392 8
 86  6 12  4 39 17.0800000  0  3G12G13G 7
  21827443.633    21827447.942    45949307.530 8 -61553850.513 8
  22167605.825    22167610.216    73518074.261 9 -84342748.150 7
  24363797.277    24363801.861    15167554.505 9 -39875749.561 8
 86  6 12  4 39 23.0800000  0  3G12G13G 7
  21830222.393    21830227.474    45963907.958 8 -61542473.563 8
  22169305.556    22169308.821    73527008.708 9 -84335786.235 9
                  24363234.848                   -39878072.968 8
 86  6 12  4 39 29.0800000  0  3G12G13G 7
  21833003.756    21833009.438    45978527.097 9 -61531082.019 8
  22171005.493    22171009.382    73535944.795 9 -84328823.050 6
  24362668.048    24362674.168    15128166.563 8 -39880367.945 7
 86  6 12  4 39 35.0800000  0  3G12G13G 7
  21835788.811    21835794.078    45993164.861 8 -61519675.972 8
  22172706.673    22172711.332    73544882.624 8 -84321858.507 8
  24362115.957    24362120.543    15125258.464 9 -39882633.995 8
 86  6 12  4 39 41.0800000  0  3G12G13G 7
  21838577.444    21838583.198    46007821.253 9 -61508255.418 7
  22174407.767    22174412.427    73553822.109 8 -84314892.676 8
  24361569.024    24361573.298    15122383.919 9 -39884873.897 8
 86  6 12  4 39 47.0800000  0  3G12G13G 7
  21841372.087    21841375.994    46022496.137 8 -61496820.436 8
  22176109.184    22176111.581    73562763.162 8 -84307925.617 8
  24361027.550    24361030.747    15119538.411 8 -39887091.171 8
 86  6 12  4 39 53.0800000  0  3G12G13G 7
  21844165.728    21844172.154    46037189.659 8 -61485370.938 8
  22177811.556    22177815.356    73571705.733 8 -84300957.376 8
  24360491.148    24360495.552    15116718.037 7 -39889288.863 8
 86  6 12  4 39 59.0800000  0  3G12G13G 7
  21846966.208    21846971.575    46051901.712 8 -61473907.009 7
  22179512.511    22179517.219    73580650.008 9 -84293987.813 8
  24359957.855    24359962.280    15113920.300 8 -39891468.917 8
 86  6 12  4 40  5.0800000  0  3G12G13G 7
  21849769.008    21849775.377    46066632.347 8 -61462428.598 8
  22181216.574    22181219.394    73589595.899 8 -84287016.986 8
  24359429.442    24359434.749    15111143.301 8 -39893632.810 7
 86  6 12  4 40 11.0800000  0  3G12G13G 7
  21852575.697    21852580.965    46081381.522 8 -61450935.728 8
  22182918.180    22182922.210    73598543.377 8 -84280044.942 8
  24358906.091    24358911.021    15108386.791 9 -39895780.739 7
 86  6 12  4 40 17.0800000  0  3G12G13G 7
  21855385.881    21855392.092    46096149.207 8 -61439428.438 7
  22184621.111    22184624.711    73607492.480 8 -84273071.596 8
  24358385.688    24358388.918    15105654.274 9 -39897909.977 7
 86  6 12  4 40 23.0800000  0  3G12G13G 7
  21858201.299    21858205.266    46110935.349 8 -61427906.776 9
  22186324.677    22186328.762    73616443.195 8 -84266097.013 9
                  24357875.619                   -39900015.050 8
 86  6 12  4 40 29.0800000  0  3G12G13G 7
  21861017.550    21861022.015    46125739.865 8 -61416370.799 6
  22188027.281    22188032.799    73625395.458 8 -84259121.233 8
  24357362.753    24357368.616    15066540.740 9 -39902091.696 8
 86  6 12  4 40 35.0800000  0  3G12G13G 7
  21863837.691    21863843.188    46140562.782 8 -61404820.477 7
  22189732.028    22189735.861    73634349.279 8 -84252144.231 7
  24356864.639    24356868.059    15063912.845 8 -39904139.388 8
 86  6 12  4 40 41.0800000  0  3G12G13G 7
  21866662.698    21866667.221    46155404.008 8 -61393255.881 7
  22191435.502    22191440.287    73643304.659 8 -84245166.012 8
  24356370.374    24356375.035    15061318.349 9 -39906161.065 8
 86  6 12  4 40 47.0800000  0  3G12G13G 7
  21869490.624    21869494.475    46170263.569 9 -61381677.019 8
  22193140.490    22193144.435    73652261.512 8 -84238186.636 8
  24355881.530    24355886.842    15058752.576 9 -39908160.360 8
 86  6 12  4 40 53.0800000  0  3G12G13G 7
  21872322.928    21872326.978    46185141.405 8 -61370083.886 7
  22194844.245    22194849.030    73661219.838 8 -84231206.134 8
  24355398.311    24355402.082    15056211.743 9 -39910140.216 9
 86  6 12  4 40 59.0800000  0  3G12G13G 7
  21875155.775    21875161.503    46200037.509 8 -61358476.534 7
  22196550.406    22196554.707    73670179.660 8 -84224224.449 7
  24354918.571    24354923.268    15053693.435 8 -39912102.540 7
 86  6 12  4 41  5.0800000  0  3G12G13G 7
  21877992.717    21877998.785    46214951.788 8 -61346855.025 7
  22198255.907    22198258.982    73679140.937 8 -84217241.635 8
  24354443.867    24354448.126    15051195.641 9 -39914048.877 8
 86  6 12  4 41 11.0800000  0  3G12G13G 7
  21880835.581    21880840.821    46229884.165 8 -61335219.408 8
  22199959.663    22199964.917    73688103.731 8 -84210257.646 8
  24353972.806    24353976.941    15048718.431 9 -39915979.155 8
 86  6 12  4 41 17.0800000  0  3G12G13G 7
  21883680.965    21883685.530    46244834.701 8 -61323569.648 8
  22201666.610    22201672.279    73697068.058 8 -84203272.462 7
                  24353509.231                   -39917890.595 8
 86  6 12  4 41 23.0800000  0  3G12G13G 7
  21886529.410    21886534.290    46259803.542 8 -61311905.615 8
  22203373.329    22203376.933    73706033.981 8 -84196286.031 8
  24353079.384    24353049.845    15009819.573 9 -39919777.872 8
 86  6 12  4 41 29.0800000  0  3G12G13G 7
  21889380.774    21889385.884    46274790.565 8 -61300227.408 8
  22205078.595    22205083.873    73715001.393 8 -84189298.433 9
  24352590.668    24352595.993    15007434.339 8 -39921636.359 7
 86  6 12  4 41 35.0800000  0  3G12G13G 7
  21892236.688    21892240.152    46289795.754 8 -61288535.059 7
  22206785.914    22206791.267    73723970.412 8 -84182309.588 8
  24352144.182    24352148.037    15005086.307 9 -39923465.995 8
 86  6 12  4 41 41.0800000  0  3G12G13G 7
  21895094.063    21895099.702    46304818.998 8 -61276828.632 8
  22208492.549    22208498.433    73732941.020 8 -84175319.500 9
  24351703.560    24351707.004    15002771.563 9 -39925269.680 8
 86  6 12  4 41 47.0800000  0  3G12G13G 7
  21897956.874    21897962.757    46319860.332 8 -61265108.124 9
  22210199.496    22210203.541    73741913.068 8 -84168328.291 8
  24351268.223    24351272.970    15000485.442 8 -39927051.057 8
 86  6 12  4 41 53.0800000  0  3G12G13G 7
  21900823.579    21900827.543    46334919.727 8 -61253373.523 8
  22211908.455    22211911.990    73750886.646 8 -84161335.908 8
  24350837.895    24350841.974    14998224.324 9 -39928812.970 8
 86  6 12  4 41 59.0800000  0  3G12G13G 7
  21903691.883    21903696.407    46349997.264 8 -61241624.797 8
  22213616.006    22213619.517    73759861.857 7 -84154342.212 8
  24350412.247    24350415.958    14995985.705 9 -39930557.345 8
 86  6 12  4 42  5.0800000  0  3G12G13G 7
  21906564.827    21906569.607    46365092.877 8 -61229861.980 7
  22215324.508    22215328.299    73768838.624 8 -84147347.338 8
  24349990.828    24349994.055    14993767.714 8 -39932285.635 8
 86  6 12  4 42 11.0800000  0  3G12G13G 7
  21909441.547    21909445.198    46380206.498 8 -61218085.134 8
  22217033.101    22217037.965    73777816.979 8 -84140351.226 8
  24349572.904    24349575.421    14991570.384 9 -39933997.846 7
 86  6 12  4 42 17.0800000  0  3G12G13G 7
  21912319.983    21912324.865    46395338.170 8 -61206294.218 8
  22218741.301    22218745.220    73786796.905 8 -84133353.879 7
  24349158.838    24349162.999    14989397.478 8 -39935691.020 7
 86  6 12  4 42 23.0800000  0  3G12G13G 7
  21915202.829    21915207.595    46410487.811 9 -61194489.294 7
  22220450.327    22220454.525    73795778.482 8 -84126355.246 9
                  24348755.104                   -39937359.445 7
 86  6 12  4 42 29.0800000  0  3G12G13G 7
  21918089.021    21918094.174    46425655.374 9 -61182670.424 8
  22222160.157    22222164.322    73804761.624 8 -84119355.389 9
  24348350.912    24348355.414    14950841.117 8 -39938999.067 7
 86  6 12  4 42 35.0800000  0  3G12G13G 7
  21920979.421    21920984.387    46440840.920 9 -61170837.530 7
  22223869.636    22223874.296    73813746.422 9 -84112354.252 8
  24347958.477    24347962.542    14948773.882 9 -39940609.912 8
 86  6 12  4 42 41.0800000  0  3G12G13G 7
  21923872.597    21923877.276    46456044.346 8 -61158990.702 7
  22225580.208    22225583.762    73822732.765 8 -84105351.920 8
  24347570.942    24347574.801    14946739.792 8 -39942194.915 7
 86  6 12  4 42 47.0800000  0  3G12G13G 7
  21926768.520    21926773.056    46471265.589 8 -61147129.998 6
  22227290.771    22227293.595    73831720.607 7 -84098348.402 8
  24347189.218    24347192.824    14944734.175 9 -39943757.725 8
 86  6 12  4 42 53.0800000  0  3G12G13G 7
  21929669.537    21929673.373    46486504.542 9 -61135255.501 7
  22229000.702    22229005.845    73840709.930 7 -84091343.733 8
  24346812.414    24346816.178    14942753.274 9 -39945301.284 7
 86  6 12  4 42 59.0800000  0  3G12G13G 7
  21932572.500    21932575.964    46501761.225 8 -61123367.173 7
  22230711.691    22230716.012    73849700.814 9 -84084337.860 9
  24346440.014    24346442.071    14940794.757 9 -39946827.410 8
 86  6 12  4 43  5.0800000  0  3G12G13G 7
  21935479.126    21935483.592    46517035.581 8 -61111465.077 8
  22232422.448    22232427.530    73858692.998 8 -84077330.966 9
  24346070.423    24346074.040    14938856.794 8 -39948337.492 8
 86  6 12  4 43 11.0800000  0  3G12G13G 7
  21938389.101    21938394.470    46532327.664 8 -61099549.172 7
  22234132.652    22234138.973    73867686.707 7 -84070322.877 8
  24345705.574    24345708.347    14936939.492 9 -39949831.498 8
 86  6 12  4 43 17.0800000  0  3G12G13G 7
  21941302.940    21941307.292    46547637.458 8 -61087619.460 7
  22235845.521    22235850.435    73876681.947 8 -84063313.608 9
                  24345349.712                   -39951306.240 7
 86  6 12  4 43 23.0800000  0  3G12G13G 7
  21944219.010    21944223.761    46562964.946 9 -61075675.952 8
  22237558.025    22237562.848    73885678.651 8 -84056303.176 8
  24345032.728    24344996.000    14898593.133 9 -39952756.367 8
 86  6 12  4 43 29.0800000  0  3G12G13G 7
  21947139.173    21947142.609    46578310.016 9 -61063718.758 7
  22239270.068    22239275.055    73894676.806 9 -84049291.633 8
  24344644.306    24344648.866    14896769.101 8 -39954177.493 7
 86  6 12  4 43 35.0800000  0  3G12G13G 7
  21950061.767    21950067.064    46593672.780 8 -61051747.778 7
  22240983.131    22240987.612    73903676.567 8 -84042278.832 8
  24344303.066    24344307.481    14894982.285 8 -39955569.810 8
 86  6 12  4 43 41.0800000  0  3G12G13G 7
  21952988.914    21952993.867    46609053.247 9 -61039762.996 7
  22242695.378    22242699.881    73912677.989 8 -84035264.729 9
  24343970.921    24343975.397    14893228.520 8 -39956936.372 8
 86  6 12  4 43 47.0800000  0  3G12G13G 7
  21955919.780    21955924.146    46624451.387 9 -61027764.445 8
  22244409.349    22244412.923    73921680.994 9 -84028249.400 7
  24343642.951    24343645.375    14891503.140 8 -39958280.835 8
 86  6 12  4 43 53.0800000  0  3G12G13G 7
  21958852.477    21958856.556    46639867.147 8 -61015752.165 7
  22246122.917    22246126.439    73930685.548 9 -84021232.863 8
  24343318.502    24343322.289    14889802.542 9 -39959605.970 8
 86  6 12  4 43 59.0800000  0  3G12G13G 7
  21961790.097    21961794.107    46655300.537 8 -61003726.147 7
  22247835.838    22247840.726    73939691.697 8 -84014215.095 8
  24342999.582    24343003.182    14888124.315 8 -39960913.675 8
 86  6 12  4 44  5.0800000  0  3G12G13G 7
  21964730.122    21964734.531    46670751.470 9 -60991686.460 7
  22249550.147    22249555.244    73948699.416 8 -84007196.081 8
  24342683.933    24342687.821    14886466.884 9 -39962205.184 7
 86  6 12  4 44 11.0800000  0  3G12G13G 7
  21967673.008    21967678.633    46686219.863 9 -60979633.175 7
  22251263.122    22251269.130    73957708.651 8 -84000175.897 8
  24342371.753    24342376.856    14884830.259 8 -39963480.465 7
 86  6 12  4 44 17.0800000  0  3G12G13G 7
  21970620.700    21970624.653    46701705.721 8 -60967566.262 7
  22252979.424    22252983.698    73966719.401 8 -83993154.537 8
                  24342069.421                   -39964736.363 8
 86  6 12  4 44 23.0800000  0  3G12G13G 7
  21973570.055    21973575.164    46717209.018 9 -60955485.780 8
  22254694.567    22254698.053    73975731.632 8 -83986132.002 8
  24341716.665    24341767.823    14846766.587 8 -39965967.319 8
 86  6 12  4 44 29.0800000  0  3G12G13G 7
  21976524.016    21976527.422    46732729.675 8 -60943391.759 7
  22256409.373    22256413.045    73984745.401 8 -83979108.291 7
  24341471.515    24341476.301    14845223.975 9 -39967169.127 7
 86  6 12  4 44 35.0800000  0  3G12G13G 7
  21979481.010    21979485.964    46748267.719 9 -60931284.200 8
  22258126.173    22258128.377    73993760.625 9 -83972083.451 8
  24341185.207    24341188.627    14843717.895 8 -39968342.296 7
 86  6 12  4 44 41.0800000  0  3G12G13G 7
  21982439.722    21982445.391    46763823.051 9 -60919163.144 6
  22259840.235    22259846.379    74002777.320 9 -83965057.443 8
  24340904.825    24340907.876    14842245.047 9 -39969489.962 7
 86  6 12  4 44 47.0800000  0  3G12G13G 7
  21985404.530    21985408.811    46779395.665 9 -60907028.654 7
  22261557.187    22261561.117    74011795.537 9 -83958030.268 8
  24340630.473    24340634.216    14840800.229 8 -39970615.801 8
 86  6 12  4 44 53.0800000  0  3G12G13G 7
  21988372.085    21988376.465    46794985.560 8 -60894880.674 7
  22263273.243    22263277.537    74020815.289 9 -83951001.893 8
  24340359.538    24340362.200    14839380.092 8 -39971722.399 6
 86  6 12  4 44 59.0800000  0  3G12G13G 7
  21991340.525    21991344.879    46810592.723 9 -60882719.255 7
  22264990.231    22264995.291    74029836.508 8 -83943972.361 8
  24340092.561    24340096.528    14837982.200 9 -39972811.664 9
 86  6 12  4 45  5.0800000  0  3G12G13G 7
  21994314.149    21994318.872    46826217.184 8 -60870544.357 8
  22266707.122    22266711.248    74038859.180 8 -83936941.707 8
  24339832.095    24339835.059    14836604.890 9 -39973884.890 8
 86  6 12  4 45 11.0800000  0  3G12G13G 7
  21997289.574    21997296.029    46841858.862 8 -60858356.044 7
  22268423.951    22268428.520    74047883.366 8 -83929909.871 8
  24339573.216    24339576.301    14835248.513 9 -39974941.805 8
 86  6 12  4 45 17.0800000  0  3G12G13G 7
  22000269.434    22000275.760    46857517.748 8 -60846154.302 7
  22270143.330    22270146.228    74056909.138 8 -83922876.804 8
  24339319.737    24339324.274    14833917.229 9 -39975979.172 7
 86  6 12  4 45 23.0800000  0  3G12G13G 7
  22003253.616    22003258.040    46873193.809 8 -60833939.192 9
  22271860.349    22271864.694    74065936.457 8 -83915842.522 8
                  24339076.560                   -39976991.339 7
 86  6 12  4 45 29.0800000  0  3G12G13G 7
  22006240.718    22006245.341    46888887.008 8 -60821710.730 7
  22273579.019    22273582.222    74074965.251 9 -83908807.102 8
  24338832.227    24338836.695    14796191.639 8 -39977974.422 7
 86  6 12  4 45 35.0800000  0  3G12G13G 7
  22009230.338    22009233.902    46904597.437 8 -60809468.846 8
  22275296.873    22275300.893    74083995.627 8 -83901770.441 8
  24338600.111    24338603.644    14794966.632 9 -39978928.984 8
 86  6 12  4 45 41.0800000  0  3G12G13G 7
  22012221.445    22012227.143    46920324.939 8 -60797213.650 8
  22277016.289    22277018.896    74093027.446 8 -83894732.652 8
  24338372.845    24338377.581    14793774.355 9 -39979858.018 7
 86  6 12  4 45 47.0800000  0  3G12G13G 7
  22015218.276    22015224.003    46936069.563 8 -60784945.100 8
  22278734.204    22278737.382    74102060.738 8 -83887693.727 8
  24338151.206    24338155.148    14792610.077 9 -39980765.246 8
 86  6 12  4 45 53.0800000  0  3G12G13G 7
  22018218.026    22018222.936    46951831.216 9 -60772663.296 7
  22280452.586    22280456.738    74111095.462 8 -83880653.686 8
  24337934.920    24337938.454    14791470.377 8 -39981653.323 8
 86  6 12  4 45 59.0800000  0  3G12G13G 7
  22021220.296    22021225.336    46967609.902 8 -60760368.218 8
  22282172.322    22282176.785    74120131.711 8 -83873612.441 8
  24337721.859    24337724.829    14790353.017 9 -39982523.995 8
 86  6 12  4 46  5.0800000  0  3G12G13G 7
  22024225.914    22024231.109    46983405.530 9 -60748059.931 8
  22283892.748    22283896.783    74129169.400 8 -83866570.095 7
  24337513.650    24337516.208    14789256.186 9 -39983378.671 8
 86  6 12  4 46 11.0800000  0  3G12G13G 7
  22027235.767    22027240.074    46999218.092 9 -60735738.461 7
  22285612.777    22285616.909    74138208.574 8 -83859526.571 8
  24337309.254    24337312.730    14788180.373 9 -39984216.955 8
 86  6 12  4 46 17.0800000  0  3G12G13G 7
  22030246.220    22030253.004    47015047.538 8 -60723403.826 8
  22287333.005    22287337.360    74147249.161 9 -83852481.958 9
                  24337112.309                   -39985035.450 8
 86  6 12  4 46 23.0800000  0  3G12G13G 7
  22033262.856    22033267.908    47030893.876 8 -60711056.029 7
  22289055.306    22289058.784    74156291.216 9 -83845436.205 8
  24336904.530    24336919.031    14750668.334 8 -39985828.720 8
 86  6 12  4 46 29.0800000  0  3G12G13G 7
  22036281.694    22036285.675    47046757.097 9 -60698695.078 8
  22290774.884    22290778.351    74165334.741 7 -83838389.299 8
  24336728.137    24336730.957    14749687.982 9 -39986592.701 8
 86  6 12  4 46 35.0800000  0  3G12G13G 7
  22039303.997    22039306.358    47062637.129 8 -60686321.022 8
  22292496.301    22292500.270    74174379.762 9 -83831341.227 8
  24336548.825    24336551.512    14748744.008 8 -39987328.258 8
 86  6 12  4 46 41.0800000  0  3G12G13G 7
  22042329.418    22042333.384    47078534.027 8 -60673933.843 8
  22294216.802    22294221.680    74183426.247 8 -83824292.025 8
  24336375.537    24336378.489    14747832.941 9 -39988038.565 8
 86  6 12  4 46 47.0800000  0  3G12G13G 7
  22045357.157    22045361.166    47094447.827 8 -60661533.472 7
  22295939.039    22295944.041    74192474.287 7 -83817241.604 8
  24336206.843    24336210.094    14746949.306 9 -39988727.111 7
 86  6 12  4 46 53.0800000  0  3G12G13G 7
  22048387.987    22048392.339    47110378.584 8 -60649119.874 8
  22297662.442    22297665.856    74201523.940 9 -83810189.936 7
  24336043.650    24336046.924    14746090.103 9 -39989396.636 7
 86  6 12  4 46 59.0800000  0  3G12G13G 7
  22051423.854    22051427.848    47126326.228 9 -60636693.148 7
  22299383.083    22299387.910    74210575.182 9 -83803137.004 8
  24335884.071    24335888.160    14745253.260 9 -39990048.706 7
 86  6 12  4 47  5.0800000  0  3G12G13G 7
  22054461.209    22054465.032    47142290.742 9 -60624253.273 9
  22301106.533    22301110.877    74219628.029 8 -83796082.852 9
  24335729.293    24335732.472    14744436.944 9 -39990684.792 7
 86  6 12  4 47 11.0800000  0  3G12G13G 7
  22057501.998    22057506.237    47158272.054 8 -60611800.296 8
  22302829.435    22302833.357    74228682.411 8 -83789027.474 8
  24335577.322    24335581.636    14743641.753 8 -39991304.419 8
 86  6 12  4 47 17.0800000  0  3G12G13G 7
  22060546.136    22060549.973    47174270.043 9 -60599334.336 8
  22304553.198    22304556.036    74237738.298 8 -83781970.934 8
                  24335434.025                   -39991904.003 8
 86  6 12  4 47 23.0800000  0  3G12G13G 7
  22063593.708    22063598.861    47190284.720 9 -60586855.374 9
  22306277.448    22306279.950    74246795.688 9 -83774913.238 8
  24335278.963    24335293.663    14706406.918 9 -39992477.980 8
 86  6 12  4 47 29.0800000  0  3G12G13G 7
  22066643.769    22066649.467    47206316.014 8 -60574363.470 8
  22308000.991    22308003.274    74255854.513 9 -83767854.403 8
  24335158.373    24335161.044    14705707.730 8 -39993022.616 8
 86  6 12  4 47 35.0800000  0  3G12G13G 7
  22069698.295    22069703.578    47222363.889 9 -60561858.629 7
  22309724.161    22309727.753    74264914.866 8 -83760794.393 8
  24335032.154    24335036.042    14705045.212 8 -39993538.856 8
 86  6 12  4 47 41.0800000  0  3G12G13G 7
  22072755.340    22072759.035    47238428.327 8 -60549340.871 8
  22311448.093    22311453.141    74273976.680 8 -83753733.235 8
  24334911.198    24334915.698    14704414.898 8 -39994029.993 7
 86  6 12  4 47 47.0800000  0  3G12G13G 7
  22075815.791    22075819.598    47254509.264 8 -60536810.288 8
  22313173.628    22313177.162    74283040.042 8 -83746670.872 9
  24334796.653    24334799.402    14703812.364 9 -39994499.506 8
 86  6 12  4 47 53.0800000  0  3G12G13G 7
  22078878.959    22078882.767    47270606.602 9 -60524266.895 7
  22314899.159    22314903.347    74292104.875 9 -83739607.375 7
  24334687.602    24334691.198    14703234.232 8 -39994949.997 9
 86  6 12  4 47 59.0800000  0  3G12G13G 7
  22081945.304    22081950.372    47286720.427 9 -60511710.668 8
  22316623.817    22316629.014    74301171.131 9 -83732542.750 8
  24334580.405    24334585.888    14702677.941 9 -39995383.462 8
 86  6 12  4 48  5.0800000  0  3G12G13G 7
  22085015.371    22085019.795    47302850.756 8 -60499141.592 8
  22318349.205    22318352.362    74310238.856 8 -83725477.001 8
  24334478.599    24334484.281    14702142.310 7 -39995800.836 8
 86  6 12  4 48 11.0800000  0  3G12G13G 7
  22088086.037    22088091.549    47318997.550 8 -60486559.670 7
  22320074.653    22320078.760    74319308.171 8 -83718409.993 8
  24334380.932    24334384.760    14701627.967 8 -39996201.628 8
 86  6 12  4 48 17.0800000  0  3G12G13G 7
  22091161.912    22091167.854    47335160.874 8 -60473964.879 8
  22321801.130    22321805.631    74328379.031 8 -83711341.795 7
                  24334291.535                   -39996582.211 8
 86  6 12  4 48 23.0800000  0  3G12G13G 7
  22094240.995    22094246.047    47351340.653 9 -60461357.255 8
  22323527.720    22323532.294    74337451.407 9 -83704272.410 7
  24334118.080    24334205.934    14664675.022 9 -39996937.117 7
 86  6 12  4 48 29.0800000  0  3G12G13G 7
  22097323.510    22097328.762    47367536.927 8 -60448736.789 8
  22325255.046    22325258.346    74346525.348 9 -83697201.808 8
  24334122.723    24334125.915    14664257.312 9 -39997262.653 8
 86  6 12  4 48 35.0800000  0  3G12G13G 7
  22100408.456    22100414.453    47383749.559 8 -60436103.570 8
  22326981.583    22326985.488    74355600.834 8 -83690129.990 7
  24334049.633    24334053.281    14663875.768 9 -39997559.943 9
 86  6 12  4 48 41.0800000  0  3G12G13G 7
  22103497.811    22103502.134    47399978.529 8 -60423457.624 7
  22328709.350    22328713.137    74364677.842 8 -83683057.002 8
  24333982.906    24333987.503    14663526.446 9 -39997832.134 7
 86  6 12  4 48 47.0800000  0  3G12G13G 7
  22106587.852    22106593.220    47416223.895 8 -60410798.893 7
  22330436.413    22330439.398    74373756.390 8 -83675982.816 8
  24333922.342    24333925.572    14663204.594 9 -39998082.936 9
 86  6 12  4 48 53.0800000  0  3G12G13G 7
  22109681.355    22109687.999    47432485.522 8 -60398127.494 8
  22332163.815    22332167.623    74382836.458 8 -83668907.439 8
  24333863.652    24333869.420    14662907.102 9 -39998314.745 8
 86  6 12  4 48 59.0800000  0  3G12G13G 7
  22112779.468    22112786.555    47448763.349 7 -60385443.477 7
  22333891.675    22333896.992    74391917.954 9 -83661830.938 8
  24333813.199    24333816.189    14662631.317 8 -39998529.637 8
 86  6 12  4 49  5.0800000  0  3G12G13G 7
  22115880.987    22115885.568    47465057.316 8 -60372746.872 8
  22335620.707    22335623.590    74401000.821 9 -83654753.381 8
  24333764.440    24333767.699    14662375.967 9 -39998728.602 8
 86  6 12  4 49 11.0800000  0  3G12G13G 7
  22118984.594    22118989.646    47481367.455 8 -60360037.679 8
  22337349.072    22337352.964    74410085.110 9 -83647674.708 8
  24333720.639    24333723.731    14662141.947 8 -39998910.962 8
 86  6 12  4 49 17.0800000  0  3G12G13G 7
  22122091.777    22122096.744    47497693.767 8 -60347315.884 8
  22339078.811    22339083.016    74419170.930 8 -83640594.852 8
                  24333684.022                   -39999072.851 8
 86  6 12  4 49 23.0800000  0  3G12G13G 7
  22125201.079    22125204.915    47514036.193 7 -60334581.526 8
  22340808.678    22340811.784    74428258.227 9 -83633513.838 7
  24333613.808    24333650.551    14625462.764 9 -39999208.812 7
 86  6 12  4 49 29.0800000  0  3G12G13G 7
  22128314.215    22128319.769    47530394.689 8 -60321834.644 7
  22342537.158    22342541.426    74437346.973 8 -83626431.703 7
  24333620.689    24333624.355    14625325.801 9 -39999315.495 8
 86  6 12  4 49 35.0800000  0  3G12G13G 7
  22131429.870    22131435.724    47546769.364 8 -60309075.174 8
  22344267.063    22344270.796    74446437.233 8 -83619348.366 8
  24333602.430    24333605.216    14625224.995 9 -39999394.028 7
 86  6 12  4 49 41.0800000  0  3G12G13G 7
  22134549.761    22134553.269    47563160.136 7 -60296303.145 8
  22345996.696    22346001.059    74455529.055 9 -83612263.843 8
  24333589.015    24333592.832    14625156.163 9 -39999447.668 8
 86  6 12  4 49 47.0800000  0  3G12G13G 7
  22137671.455    22137677.238    47579566.983 8 -60283518.580 8
  22347728.024    22347731.298    74464622.408 9 -83605178.104 7
  24333580.870    24333584.997    14625114.765 9 -39999479.927 8
 86  6 12  4 49 53.0800000  0  3G12G13G 7
  22140796.210    22140801.406    47595989.922 8 -60270721.480 8
  22349458.477    22349462.553    74473717.337 8 -83598091.152 7
  24333577.854    24333580.770    14625097.512 9 -39999493.372 8
 86  6 12  4 49 59.0800000  0  3G12G13G 7
  22143924.915    22143930.283    47612428.939 8 -60257911.851 7
  22351189.468    22351193.111    74482813.829 9 -83591002.970 8
  24333578.008    24333581.073    14625102.105 9 -39999489.786 7
 86  6 12  4 50  5.0800000  0  3G12G13G 7
  22147057.054    22147061.291    47628883.988 8 -60245089.735 7
  22352920.027    22352924.848    74491911.877 8 -83583913.577 7
  24333582.738    24333588.046    14625127.274 9 -39999470.190 8
 86  6 12  4 50 11.0800000  0  3G12G13G 7
  22150189.995    22150196.594    47645355.004 8 -60232255.177 8
  22354652.513    22354656.117    74501011.473 9 -83576822.980 7
  24333591.877    24333596.227    14625173.899 8 -39999433.839 8
 86  6 12  4 50 17.0800000  0  3G12G13G 7
  22153327.514    22153333.326    47661841.946 8 -60219408.217 8
  22356384.323    22356387.592    74510112.586 9 -83569731.203 8
                  24333608.968                   -39999376.913 8
 86  6 12  4 50 23.0800000  0  3G12G13G 7
  22156467.552    22156473.549    47678344.836 7 -60206548.828 9
  22358114.597    22358120.315    74519215.234 8 -83562638.227 7
  24333623.311    24333630.338    14588781.146 8 -39999293.751 7
 86  6 12  4 50 29.0800000  0  3G12G13G 7
  22159611.911    22159617.508    47694863.558 8 -60193677.103 7
  22359848.323    22359852.938    74528319.356 9 -83555544.112 8
  24333654.187    24333657.372    14588925.385 8 -39999181.372 8
 86  6 12  4 50 35.0800000  0  3G12G13G 7
  22162757.816    22162762.897    47711398.161 8 -60180792.983 8
  22361580.838    22361584.363    74537424.954 9 -83548448.825 7
  24333688.080    24333691.874    14589105.112 8 -39999040.939 8
 86  6 12  4 50 41.0800000  0  3G12G13G 7
  22165907.269    22165912.923    47727948.577 8 -60167896.575 8
  22363314.576    22363318.400    74546532.049 9 -83541352.385 8
  24333728.230    24333733.496    14589316.931 8 -39998875.876 8
 86  6 12  4 50 47.0800000  0  3G12G13G 7
  22169059.412    22169065.382    47744514.709 8 -60154987.893 8
  22365047.636    22365051.857    74555640.571 8 -83534254.841 8
  24333773.101    24333777.973    14589555.977 8 -39998689.620 9
 86  6 12  4 50 53.0800000  0  3G12G13G 7
  22172215.019    22172221.259    47761096.495 8 -60142067.020 7
  22366781.429    22366784.166    74564750.540 8 -83527156.165 7
  24333825.175    24333827.783    14589819.046 8 -39998484.625 8
 86  6 12  4 50 59.0800000  0  3G12G13G 7
  22175374.660    22175379.815    47777693.933 8 -60129133.960 8
  22368515.666    22368518.873    74573861.908 8 -83520056.403 8
  24333878.130    24333882.287    14590103.919 9 -39998262.637 8
 86  6 12  4 51  5.0800000  0  3G12G13G 7
  22178536.133    22178541.329    47794307.066 9 -60116188.648 7
  22370250.206    22370252.529    74582974.674 9 -83512955.532 7
  24333935.371    24333939.993    14590409.073 9 -39998024.859 7
 86  6 12  4 51 11.0800000  0  3G12G13G 7
  22181700.012    22181705.050    47810935.816 8 -60103231.190 8
  22371983.191    22371986.477    74592088.911 9 -83505853.534 8
  24333999.570    24334001.737    14590735.658 9 -39997770.367 8
 86  6 12  4 51 17.0800000  0  3G12G13G 7
  22184866.836    22184871.860    47827580.192 8 -60090261.539 8
  22373718.882    22373720.885    74601204.673 8 -83498750.341 8
                  24334069.022                   -39997495.219 7
 86  6 12  4 51 23.0800000  0  3G12G13G 7
  22188036.865    22188042.620    47844240.180 8 -60077279.740 8
  22375453.678    22375455.859    74610321.968 9 -83491645.948 8
  24334143.721    24334143.736    14554615.097 9 -39997193.790 8
 86  6 12  4 51 29.0800000  0  3G12G13G 7
  22191210.559    22191215.083    47860915.691 8 -60064285.840 8
  22377188.722    22377192.931    74619440.728 9 -83484540.430 7
  24334220.221    24334223.686    14555039.769 9 -39996862.866 7
 86  6 12  4 51 35.0800000  0  3G12G13G 7
  22194385.596    22194391.952    47877606.705 8 -60051279.855 8
  22378922.632    22378927.566    74628560.985 9 -83477433.726 8
  24334308.428    24334311.261    14555500.599 9 -39996504.165 7
 86  6 12  4 51 41.0800000  0  3G12G13G 7
  22197565.471    22197570.652    47894313.254 8 -60038261.766 8
  22380659.220    22380662.536    74637682.700 8 -83470325.908 7
  24334401.422    24334404.596    14555992.422 9 -39996120.921 6
 86  6 12  4 51 47.0800000  0  3G12G13G 7
  22200747.807    22200753.232    47911035.340 9 -60025231.565 8
  22382394.997    22382399.084    74646805.850 8 -83463216.947 8
  24334501.123    24334503.316    14556511.225 8 -39995716.658 8
 86  6 12  4 51 53.0800000  0  3G12G13G 7
  22203933.692    22203937.656    47927772.882 9 -60012189.332 7
  22384131.722    22384135.168    74655930.513 8 -83456106.827 8
  24334603.376    24334606.306    14557053.877 9 -39995293.824 7
 86  6 12  4 51 59.0800000  0  3G12G13G 7
  22207120.665    22207125.703    47944525.929 9 -59999135.009 8
  22385867.859    22385872.432    74665056.655 9 -83448995.538 7
  24334710.917    24334713.642    14557618.182 8 -39994854.086 7
 86  6 12  4 52  5.0800000  0  3G12G13G 7
  22210310.726    22210316.924    47961294.371 8 -59986068.706 8
  22387605.625    22387609.460    74674184.324 8 -83441883.074 9
  24334821.828    24334825.305    14558202.872 9 -39994398.480 8
 86  6 12  4 52 11.0800000  0  3G12G13G 7
  22213505.396    22213510.435    47978078.236 7 -59972990.365 8
  22389342.803    22389346.457    74683313.491 8 -83434769.437 7
  24334937.124    24334939.968    14558809.119 9 -39993926.095 8
 86  6 12  4 52 17.0800000  0  3G12G13G 7
  22216702.328    22216708.039    47994877.479 8 -59959900.048 8
  22391080.656    22391084.080    74692444.224 8 -83427654.571 8
                  24335062.015                   -39993432.611 7
 86  6 12  4 52 23.0800000  0  3G12G13G 7
  22219901.262    22219907.174    48011692.102 8 -59946797.742 9
  22392818.266    22392821.705    74701576.497 9 -83420538.525 7
  24335187.597    24335187.597    14522965.667 9 -39992912.617 8
 86  6 12  4 52 29.0800000  0  3G12G13G 7
  22223104.661    22223111.331    48028522.173 8 -59933683.409 8
  22394556.204    22394560.073    74710710.326 9 -83413421.242 7
  24335319.989    24335322.075    14523670.846 9 -39992363.178 8
 86  6 12  4 52 35.0800000  0  3G12G13G 7
  22226309.691    22226315.159    48045367.595 8 -59920557.110 7
  22396294.202    22396298.579    74719845.798 8 -83406302.695 7
  24335460.234    24335462.845    14524411.550 9 -39991785.996 7
 86  6 12  4 52 41.0800000  0  3G12G13G 7
  22229519.301    22229523.953    48062228.291 9 -59907418.906 8
  22398033.070    22398036.666    74728982.804 9 -83399182.960 8
  24335607.558    24335607.740    14525183.694 9 -39991184.335 8
 86  6 12  4 52 47.0800000  0  3G12G13G 7
  22232730.284    22232735.823    48079104.286 8 -59894268.786 7
  22399771.172    22399775.476    74738121.257 8 -83392062.063 7
  24335758.931    24335762.226    14525982.709 9 -39990561.726 8
 86  6 12  4 52 53.0800000  0  3G12G13G 7
  22235944.328    22235948.766    48095995.554 8 -59881106.767 8
  22401512.396    22401515.133    74747261.233 8 -83384940.017 8
  24335915.127    24335918.289    14526805.444 9 -39989920.639 7
 86  6 12  4 52 59.0800000  0  3G12G13G 7
  22239162.065    22239167.332    48112902.037 9 -59867932.883 7
  22403251.772    22403254.147    74756402.700 8 -83377816.794 7
  24336076.384    24336078.380    14527649.756 9 -39989262.725 8
 86  6 12  4 53  5.0800000  0  3G12G13G 7
  22242381.949    22242387.417    48129823.732 8 -59854747.143 7
  22404990.982    22404994.454    74765545.772 8 -83370692.324 7
  24336240.654    24336244.183    14528514.287 9 -39988589.066 7
 86  6 12  4 53 11.0800000  0  3G12G13G 7
  22245605.066    22245609.647    48146760.589 7 -59841549.585 8
  22406731.384    22406735.529    74774690.336 9 -83363566.678 7
  24336408.981    24336412.658    14529400.368 9 -39987898.609 8
 86  6 12  4 53 17.0800000  0  3G12G13G 7
  22248830.701    22248835.983    48163712.572 8 -59828340.257 8
  22408471.321    22408475.300    74783836.412 9 -83356439.878 8
                  24336585.781                   -39987186.928 7
 86  6 12  4 53 23.0800000  0  3G12G13G 7
  22252060.200    22252063.823    48180679.687 9 -59815119.124 7
  22410211.999    22410216.612    74792984.004 8 -83349311.885 9
  24336761.391    24336765.759    14493835.208 7 -39986448.602 8
 86  6 12  4 53 29.0800000  0  3G12G13G 7
  22255291.101    22255295.910    48197661.937 9 -59801886.204 7
  22411952.795    22411959.128    74802133.139 9 -83342182.678 7
  24336950.516    24336953.768    14494820.422 8 -39985680.906 8
 86  6 12  4 53 35.0800000  0  3G12G13G 7
  22258525.322    22258530.045    48214659.144 9 -59788641.620 8
  22413693.664    22413698.760    74811283.844 9 -83335052.270 8
  24337144.913    24337148.778    14495841.019 9 -39984885.626 8
 86  6 12  4 53 41.0800000  0  3G12G13G 7
  22261762.920    22261766.928    48231671.392 9 -59775385.332 7
  22415436.219    22415440.372    74820436.005 8 -83327920.715 8
  24337344.846    24337349.439    14496892.497 9 -39984066.300 7
 86  6 12  4 53 47.0800000  0  3G12G13G 7
  22265003.695    22265007.846    48248698.556 9 -59762117.409 8
  22417177.552    22417181.639    74829589.570 8 -83320788.056 7
  24337549.750    24337553.564    14497970.523 9 -39983226.268 8
 86  6 12  4 53 53.0800000  0  3G12G13G 7
  22268245.785    22268249.794    48265740.546 8 -59748837.936 7
  22418920.007    22418924.739    74838744.575 9 -83313654.286 8
  24337759.749    24337762.470    14499072.075 9 -39982367.916 9
 86  6 12  4 53 59.0800000  0  3G12G13G 7
  22271491.911    22271495.648    48282797.391 8 -59735546.889 7
  22420662.989    22420665.791    74847900.995 8 -83306519.393 8
  24337973.327    24337977.921    14500195.162 8 -39981492.789 8
 86  6 12  4 54  5.0800000  0  3G12G13G 7
  22274740.384    22274744.865    48299869.125 9 -59722244.240 7
  22422405.151    22422410.483    74857058.972 8 -83299383.316 8
  24338191.028    24338195.439    14501338.316 9 -39980602.017 8
 86  6 12  4 54 11.0800000  0  3G12G13G 7
  22277992.291    22277997.517    48316955.747 8 -59708929.982 6
  22424148.290    22424151.783    74866218.396 8 -83292246.091 7
  24338413.110    24338416.520    14502503.250 8 -39979694.290 9
 86  6 12  4 54 17.0800000  0  3G12G13G 7
  22281247.290    22281250.454    48334057.217 9 -59695604.164 8
  22425891.432    22425895.751    74875379.338 9 -83285107.698 7
                  24338643.327                   -39978765.258 7
 86  6 12  4 54 23.0800000  0  3G12G13G 7
  22284503.231    22284507.684    48351173.495 9 -59682266.802 7
  22427635.214    22427639.499    74884541.893 9 -83277968.041 8
  24338873.774    24338875.398    14467215.668 9 -39977809.432 8
 86  6 12  4 54 29.0800000  0  3G12G13G 7
  22287763.696    22287768.191    48368304.534 8 -59668917.949 7
  22429379.584    22429383.334    74893705.980 8 -83270827.187 8
  24339114.347    24339116.844    14468479.888 9 -39976824.297 9
 86  6 12  4 54 35.0800000  0  3G12G13G 7
  22291026.593    22291030.244    48385450.358 9 -59655557.565 7
  22431123.881    22431127.421    74902871.566 9 -83263685.163 8
  24339360.906    24339364.003    14469778.888 8 -39975811.713 8
 86  6 12  4 54 41.0800000  0  3G12G13G 7
  22294292.752    22294295.672    48402610.908 9 -59642185.704 7
  22432867.692    22432872.373    74912038.645 8 -83256541.991 7
  24339614.501    24339618.082    14471109.357 9 -39974774.978 8
 86  6 12  4 54 47.0800000  0  3G12G13G 7
  22297560.286    22297564.435    48419786.151 9 -59628802.396 7
  22434612.942    22434616.642    74921207.240 8 -83249397.625 7
  24339872.488    24339876.789    14472466.463 9 -39973717.491 7
 86  6 12  4 54 53.0800000  0  3G12G13G 7
  22300830.994    22300835.260    48436976.153 9 -59615407.585 7
  22436356.245    22436360.503    74930377.290 8 -83242252.124 8
  24340135.165    24340140.410    14473847.059 9 -39972641.694 7
 86  6 12  4 54 59.0800000  0  3G12G13G 7
  22304106.225    22304108.860    48454180.803 9 -59602001.373 7
  22438103.187    22438106.146    74939548.820 9 -83235105.492 7
  24340401.542    24340404.983    14475248.797 8 -39971549.434 7
 86  6 12  4 55  5.0800000  0  3G12G13G 7
  22307382.573    22307385.737    48471400.059 9 -59588583.759 6
  22439849.191    22439852.061    74948721.811 9 -83227957.702 7
  24340673.343    24340676.529    14476670.657 9 -39970441.497 8
 86  6 12  4 55 11.0800000  0  3G12G13G 7
  22310662.124    22310665.776    48488633.943 9 -59575154.763 7
  22441595.623    22441598.275    74957896.288 8 -83220808.754 9
  24340946.483    24340950.000    14478114.365 9 -39969316.535 7
 86  6 12  4 55 17.0800000  0  3G12G13G 7
  22313943.079    22313948.261    48505882.438 8 -59561714.365 7
  22443340.590    22443343.433    74967072.388 8 -83213658.538 8
                  24341230.664                   -39968169.930 7
 86  6 12  4 55 23.0800000  0  3G12G13G 7
  22317228.355    22317233.954    48523145.504 8 -59548262.637 7
  22445086.941    22445090.237    74976250.091 8 -83206507.077 8
  24341512.922    24341515.544    14443103.888 8 -39966996.374 8
 86  6 12  4 55 29.0800000  0  3G12G13G 7
  22320516.666    22320521.103    48540423.145 9 -59534799.521 6
  22446833.342    22446836.976    74985429.339 8 -83199354.420 8
  24341807.532    24341810.498    14444647.616 9 -39965793.480 8
 86  6 12  4 55 35.0800000  0  3G12G13G 7
  22323807.722    22323811.731    48557715.292 8 -59521325.138 7
  22448580.527    22448585.225    74994610.158 8 -83192200.525 8
  24342108.351    24342111.005    14446226.439 8 -39964563.219 8
 86  6 12  4 55 41.0800000  0  3G12G13G 7
  22327100.325    22327105.980    48575021.866 9 -59507839.485 7
  22450328.030    22450332.121    75003792.571 9 -83185045.403 8
  24342413.942    24342418.099    14447835.897 9 -39963309.100 8
 86  6 12  4 55 47.0800000  0  3G12G13G 7
  22330396.620    22330400.455    48592342.888 9 -59494342.597 7
  22452076.724    22452081.266    75012976.362 9 -83177889.195 7
  24342725.163    24342730.141    14449471.685 8 -39962034.449 7
 86  6 12  4 55 53.0800000  0  3G12G13G 7
  22333693.800    22333699.855    48609678.253 8 -59480834.512 7
  22453824.292    22453827.884    75022161.651 9 -83170731.826 7
  24343041.647    24343046.061    14451130.738 9 -39960741.677 7
